Weather History for Walnut Ridge, AR

Change the Weather History Date:

Sunday, December 29, 2013

  Actual Average Record
Temperature  
Mean Temperature 38 °F -  
Max Temperature 50 °F 43 °F 57 °F (2002)
Min Temperature 26 °F 29 °F 21 °F (2000)
Degree Days  
Heating Degree Days 27    
Moisture  
Dew Point 28 °F    
Average Humidity 67    
Maximum Humidity 81    
Minimum Humidity 55    
Precipitation  
Precipitation 0.00 in - - ()
Sea Level Pressure  
Sea Level Pressure 30.07 in    
Wind  
Wind Speed 9 mph (WNW)    
Max Wind Speed 21 mph    
Max Gust Speed 26 mph    
Visibility 10 miles    
Events      
Averages and records for this station are not official NWS values.
T = Trace of Precipitation, MM = Missing Value Source: NWS Daily Summary

Daily Weather History Graph

Daily Weather History Graph

Search for Another Location

Airport:

Trip Planner

Search our weather history database for the weather conditions in past years. The results will help you decide how hot, cold, wet, or windy it might be!

Date:

Astronomy

Dec. 29, 2013 Rise Set
Actual Time 7:14 AM CST 4:57 PM CST
Civil Twilight 6:45 AM CST 5:26 PM CST
Nautical Twilight 6:13 AM CST 5:58 PM CST
Astronomical Twilight 5:42 AM CST 6:29 PM CST
Moon 4:00 AM CST (12/29) 2:34 PM CST (12/29)
Length of Visible Light 10h 41m
Length of Day
9h 43m
Waning Crescent, 11% of the Moon is Illuminated
Dec 29
Waning Crescent
Jan 1
New
Jan 7
First Quarter
Jan 15
Full
Jan 23
Last Quarter

Hourly Weather History & Observations

Time (CST) Temp. Windchill Dew Point Humidity Pressure Visibility Wind Dir Wind Speed Gust Speed Precip Events Conditions
12:15 AM 39.2 °F 35.9 °F 33.8 °F 81% 29.98 in 10.0 mi SSW 4.6 mph - N/A   Scattered Clouds
12:35 AM 39.2 °F 35.0 °F 33.8 °F 81% 29.99 in 10.0 mi SSW 5.8 mph - N/A   Clear
12:55 AM 39.2 °F 35.0 °F 33.8 °F 81% 29.98 in 10.0 mi SSW 5.8 mph - N/A   Partly Cloudy
1:15 AM 39.2 °F 35.9 °F 33.8 °F 81% 29.98 in 10.0 mi SW 4.6 mph - N/A   Partly Cloudy
1:35 AM 39.2 °F 37.0 °F 32.0 °F 75% 29.97 in 10.0 mi SSW 3.5 mph - N/A   Partly Cloudy
1:55 AM 39.2 °F 35.9 °F 33.8 °F 81% 29.97 in 10.0 mi WSW 4.6 mph - N/A   Mostly Cloudy
2:15 AM 39.2 °F 35.9 °F 33.8 °F 81% 29.96 in 10.0 mi West 4.6 mph - N/A   Overcast
2:35 AM 39.2 °F 35.9 °F 33.8 °F 81% 29.97 in 10.0 mi SW 4.6 mph - N/A   Overcast
2:55 AM 39.2 °F 35.0 °F 33.8 °F 81% 29.97 in 10.0 mi South 5.8 mph - N/A   Overcast
3:15 AM 39.2 °F 34.2 °F 33.8 °F 81% 29.98 in 10.0 mi South 6.9 mph - N/A   Overcast
3:35 AM 39.2 °F 37.0 °F 33.8 °F 81% 29.96 in 10.0 mi SSW 3.5 mph - N/A   Mostly Cloudy
3:55 AM 37.4 °F 33.8 °F 32.0 °F 81% 29.96 in 10.0 mi SW 4.6 mph - N/A   Mostly Cloudy
4:15 AM 35.6 °F 30.7 °F 28.4 °F 75% 29.96 in 9.0 mi SW 5.8 mph - N/A   Mostly Cloudy
4:35 AM 35.6 °F 29.9 °F 28.4 °F 75% 29.96 in 10.0 mi SW 6.9 mph - N/A   Partly Cloudy
4:55 AM 35.6 °F 30.7 °F 28.4 °F 75% 29.96 in 9.0 mi SW 5.8 mph - N/A   Partly Cloudy
5:15 AM 35.6 °F 29.9 °F 30.2 °F 81% 29.96 in 9.0 mi SW 6.9 mph - N/A   Partly Cloudy
5:35 AM 35.6 °F 31.7 °F 30.2 °F 81% 29.95 in 9.0 mi SW 4.6 mph - N/A   Clear
5:55 AM 35.6 °F 31.7 °F 28.4 °F 75% 29.95 in 7.0 mi SSW 4.6 mph - N/A   Clear
6:15 AM 33.8 °F 27.7 °F 28.4 °F 81% 29.95 in 8.0 mi SSW 6.9 mph - N/A   Clear
6:35 AM 33.8 °F 27.7 °F 26.6 °F 75% 29.96 in 8.0 mi South 6.9 mph - N/A   Clear
6:55 AM 33.8 °F 30.8 °F 26.6 °F 75% 29.96 in 7.0 mi South 3.5 mph - N/A   Clear
7:15 AM 33.8 °F 29.6 °F 28.4 °F 81% 29.97 in 8.0 mi South 4.6 mph - N/A   Clear
7:35 AM 33.8 °F 28.6 °F 26.6 °F 75% 29.97 in 9.0 mi South 5.8 mph - N/A   Clear
7:55 AM 33.8 °F 27.0 °F 28.4 °F 81% 29.99 in 7.0 mi South 8.1 mph - N/A   Clear
8:15 AM 35.6 °F 30.7 °F 30.2 °F 81% 30.00 in 9.0 mi SW 5.8 mph - N/A   Clear
8:35 AM 39.2 °F 34.2 °F 32.0 °F 75% 30.01 in 10.0 mi SW 6.9 mph - N/A   Clear
8:55 AM 41.0 °F 35.2 °F 33.8 °F 76% 30.01 in 10.0 mi SW 9.2 mph - N/A   Clear
9:15 AM 42.8 °F 41.1 °F 33.8 °F 70% 30.01 in 10.0 mi West 3.5 mph - N/A   Clear
9:35 AM 44.6 °F 42.2 °F 33.8 °F 66% 30.03 in 10.0 mi West 4.6 mph - N/A   Clear
9:55 AM 44.6 °F 40.2 °F 33.8 °F 66% 30.03 in 10.0 mi WSW 8.1 mph - N/A   Clear
10:15 AM 44.6 °F 43.1 °F 33.8 °F 66% 30.02 in 10.0 mi WSW 3.5 mph - N/A   Mostly Cloudy
10:35 AM 44.6 °F 41.4 °F 33.8 °F 66% 30.03 in 10.0 mi West 5.8 mph - N/A   Overcast
10:55 AM 46.4 °F 42.9 °F 33.8 °F 62% 30.02 in 10.0 mi SW 6.9 mph - N/A   Overcast
11:15 AM 46.4 °F 42.9 °F 33.8 °F 62% 30.02 in 10.0 mi WSW 6.9 mph - N/A   Overcast
11:35 AM 46.4 °F 45.2 °F 35.6 °F 66% 30.01 in 10.0 mi WSW 3.5 mph - N/A   Overcast
11:55 AM 48.2 °F - 35.6 °F 62% 30.01 in 10.0 mi WNW 4.6 mph - N/A   Overcast
12:15 PM 48.2 °F - 35.6 °F 62% 30.02 in 10.0 mi WNW 5.8 mph - N/A   Overcast
12:35 PM 50.0 °F - 35.6 °F 58% 30.02 in 10.0 mi NNW 15.0 mph - N/A   Overcast
12:55 PM 48.2 °F - 35.6 °F 62% 30.02 in 10.0 mi NNW 16.1 mph - N/A   Overcast
1:15 PM 48.2 °F - 33.8 °F 58% 30.02 in 10.0 mi NNW 16.1 mph - N/A   Overcast
1:35 PM 48.2 °F - 33.8 °F 58% 30.02 in 10.0 mi NNW 16.1 mph - N/A   Scattered Clouds
1:55 PM 48.2 °F - 33.8 °F 58% 30.03 in 10.0 mi North 20.7 mph - N/A   Clear
2:15 PM 46.4 °F 38.7 °F 33.8 °F 62% 30.04 in 10.0 mi NNW 20.7 mph 26.5 mph N/A   Partly Cloudy
2:35 PM 44.6 °F 36.6 °F 32.0 °F 61% 30.06 in 10.0 mi NNW 19.6 mph 24.2 mph N/A   Mostly Cloudy
2:55 PM 42.8 °F 34.3 °F 30.2 °F 61% 30.07 in 10.0 mi NNW 19.6 mph - N/A   Mostly Cloudy
3:15 PM 42.8 °F 34.5 °F 28.4 °F 57% 30.08 in 10.0 mi NNW 18.4 mph - N/A   Mostly Cloudy
3:35 PM 39.2 °F 29.8 °F 28.4 °F 65% 30.10 in 10.0 mi NW 18.4 mph - N/A   Overcast
3:55 PM 39.2 °F 31.2 °F 26.6 °F 61% 30.11 in 10.0 mi NW 13.8 mph - N/A   Overcast
4:15 PM 39.2 °F 30.2 °F 26.6 °F 61% 30.12 in 10.0 mi NNW 17.3 mph - N/A   Overcast
4:35 PM 37.4 °F 26.9 °F 24.8 °F 60% 30.13 in 10.0 mi NNW 20.7 mph - N/A   Overcast
4:55 PM 37.4 °F 27.2 °F 23.0 °F 56% 30.14 in 10.0 mi NNW 19.6 mph 24.2 mph N/A   Overcast
5:15 PM 35.6 °F 25.5 °F 23.0 °F 60% 30.15 in 10.0 mi NNW 17.3 mph 23.0 mph N/A   Overcast
5:35 PM 35.6 °F 24.5 °F 21.2 °F 56% 30.16 in 10.0 mi NW 20.7 mph - N/A   Overcast
5:55 PM 35.6 °F 25.9 °F 21.2 °F 56% 30.17 in 10.0 mi NNW 16.1 mph - N/A   Overcast
6:15 PM 35.6 °F 25.2 °F 21.2 °F 56% 30.18 in 10.0 mi NNW 18.4 mph 23.0 mph N/A   Overcast
6:35 PM 35.6 °F 25.5 °F 21.2 °F 56% 30.19 in 10.0 mi NNW 17.3 mph - N/A   Overcast
6:55 PM 33.8 °F 22.8 °F 21.2 °F 60% 30.20 in 10.0 mi NNW 18.4 mph 23.0 mph N/A   Overcast
7:15 PM 33.8 °F 23.5 °F 21.2 °F 60% 30.20 in 10.0 mi NNW 16.1 mph - N/A   Overcast
7:35 PM 33.8 °F 24.3 °F 21.2 °F 60% 30.21 in 10.0 mi NNW 13.8 mph 19.6 mph N/A   Overcast
7:55 PM 33.8 °F 23.5 °F 19.4 °F 56% 30.22 in 10.0 mi NNW 16.1 mph - N/A   Overcast
8:15 PM 32.0 °F 21.2 °F 17.6 °F 55% 30.22 in 10.0 mi NNW 16.1 mph - N/A   Overcast
8:35 PM 32.0 °F 21.6 °F 19.4 °F 60% 30.23 in 10.0 mi NNW 15.0 mph - N/A   Overcast
8:55 PM 30.2 °F 18.9 °F 17.6 °F 60% 30.23 in 10.0 mi NW 16.1 mph 19.6 mph N/A   Mostly Cloudy
9:15 PM 30.2 °F 19.8 °F 17.6 °F 60% 30.24 in 10.0 mi NW 13.8 mph - N/A   Mostly Cloudy
9:35 PM 28.4 °F 17.5 °F 15.8 °F 59% 30.24 in 10.0 mi NNW 13.8 mph - N/A   Clear
9:55 PM 28.4 °F 16.6 °F 15.8 °F 59% 30.24 in 10.0 mi NNW 16.1 mph - N/A   Clear
10:15 PM 28.4 °F 17.0 °F 15.8 °F 59% 30.25 in 10.0 mi NNW 15.0 mph - N/A   Clear
10:35 PM 28.4 °F 17.0 °F 15.8 °F 59% 30.25 in 10.0 mi NNW 15.0 mph - N/A   Clear
10:55 PM 28.4 °F 17.5 °F 15.8 °F 59% 30.26 in 10.0 mi NNW 13.8 mph - N/A   Clear
11:15 PM 28.4 °F 18.0 °F 14.0 °F 55% 30.26 in 10.0 mi NNW 12.7 mph - N/A   Clear
11:35 PM 26.6 °F 15.7 °F 14.0 °F 59% 30.27 in 10.0 mi North 12.7 mph - N/A   Clear
11:55 PM 26.6 °F 15.2 °F 14.0 °F 59% 30.27 in 10.0 mi NNW 13.8 mph - N/A   Clear